Time,TemperatureF,DewpointF,PressureIn,WindDirection,WindDirectionDegrees,WindSpeedMPH,WindSpeedGustMPH,Humidity,HourlyPrecipIn,Conditions,Clouds,dailyrainin,SoftwareType,DateUTC
2013-03-02 00:00:00,18.0,18.0,29.14,North,0,0.0,0.0,100,0.00,,CLR,0.00,VWS V14.01,2013-03-02 06:00:00,
2013-03-02 00:05:00,17.8,17.8,29.14,North,0,1.0,3.0,100,0.00,,CLR,0.00,VWS V14.01,2013-03-02 06:05:00,
2013-03-02 00:10:00,17.6,17.6,29.15,North,0,0.0,0.0,100,0.00,,CLR,0.00,VWS V14.01,2013-03-02 06:10:00,
2013-03-02 00:15:00,17.5,17.5,29.15,North,0,0.0,1.0,100,0.00,,CLR,0.00,VWS V14.01,2013-03-02 06:15:00,
2013-03-02 00:20:00,17.4,17.4,29.15,North,0,3.0,3.0,100,0.00,,CLR,0.00,VWS V14.01,2013-03-02 06:20:00,
2013-03-02 00:25:00,17.3,17.3,29.15,North,0,1.0,5.0,100,0.00,,CLR,0.00,VWS V14.01,2013-03-02 06:25:00,
2013-03-02 00:30:00,17.0,17.0,29.15,North,0,2.0,2.0,100,0.00,,CLR,0.00,VWS V14.01,2013-03-02 06:30:00,
2013-03-02 00:35:00,16.9,16.9,29.15,North,0,2.0,4.0,100,0.00,,CLR,0.00,VWS V14.01,2013-03-02 06:35:00,
2013-03-02 00:40:00,16.8,16.8,29.16,North,0,2.0,3.0,100,0.00,,CLR,0.00,VWS V14.01,2013-03-02 06:40:00,
2013-03-02 00:45:00,16.6,16.6,29.15,North,0,3.0,4.0,100,0.00,,CLR,0.00,VWS V14.01,2013-03-02 06:45:00,
2013-03-02 00:50:00,16.3,16.3,29.15,North,0,1.0,2.0,100,0.00,,CLR,0.00,VWS V14.01,2013-03-02 06:50:00,
2013-03-02 00:55:00,16.2,16.2,29.16,North,0,0.0,3.0,100,0.00,,CLR,0.00,VWS V14.01,2013-03-02 06:55:00,
2013-03-02 01:00:00,16.0,16.0,29.16,North,0,0.0,1.0,100,0.00,,CLR,0.00,VWS V14.01,2013-03-02 07:00:00,
2013-03-02 01:05:00,15.9,15.9,29.16,North,0,1.0,1.0,100,0.00,,CLR,0.00,VWS V14.01,2013-03-02 07:05:00,
2013-03-02 01:10:00,15.7,15.7,29.16,North,0,1.0,1.0,100,0.00,,CLR,0.00,VWS V14.01,2013-03-02 07:10:00,
2013-03-02 01:15:00,15.4,15.4,29.15,North,0,0.0,2.0,100,0.00,,CLR,0.00,VWS V14.01,2013-03-02 07:15:00,
2013-03-02 01:20:00,15.2,15.2,29.15,North,0,1.0,1.0,100,0.00,,CLR,0.00,VWS V14.01,2013-03-02 07:20:00,
2013-03-02 01:25:00,15.0,15.0,29.15,North,0,1.0,1.0,100,0.00,,CLR,0.00,VWS V14.01,2013-03-02 07:25:00,
2013-03-02 01:30:00,14.8,14.8,29.16,North,0,0.0,1.0,100,0.00,,CLR,0.00,VWS V14.01,2013-03-02 07:30:00,
2013-03-02 01:35:00,14.6,14.6,29.16,North,0,0.0,2.0,100,0.00,,CLR,0.00,VWS V14.01,2013-03-02 07:35:00,
2013-03-02 01:40:00,14.4,14.4,29.16,North,0,0.0,0.0,100,0.00,,CLR,0.00,VWS V14.01,2013-03-02 07:40:00,
2013-03-02 01:45:00,14.3,14.3,29.16,North,0,1.0,2.0,100,0.00,,CLR,0.00,VWS V14.01,2013-03-02 07:45:00,
2013-03-02 01:50:00,14.2,14.2,29.16,North,0,0.0,0.0,100,0.00,,CLR,0.00,VWS V14.01,2013-03-02 07:50:00,
2013-03-02 01:55:00,14.0,14.0,29.16,North,0,0.0,1.0,100,0.00,,CLR,0.00,VWS V14.01,2013-03-02 07:55:00,
2013-03-02 02:00:00,13.9,13.9,29.16,North,0,0.0,0.0,100,0.00,,CLR,0.00,VWS V14.01,2013-03-02 08:00:00,
2013-03-02 02:05:00,13.8,13.8,29.15,North,0,0.0,0.0,100,0.00,,CLR,0.00,VWS V14.01,2013-03-02 08:05:00,
2013-03-02 02:10:00,13.7,13.7,29.15,North,0,0.0,0.0,100,0.00,,CLR,0.00,VWS V14.01,2013-03-02 08:10:00,
2013-03-02 02:15:00,13.5,13.5,29.15,North,0,0.0,0.0,100,0.00,,CLR,0.00,VWS V14.01,2013-03-02 08:15:00,
2013-03-02 02:20:00,13.4,13.4,29.15,North,0,0.0,0.0,100,0.00,,CLR,0.00,VWS V14.01,2013-03-02 08:20:00,
2013-03-02 02:25:00,13.3,13.3,29.15,North,0,0.0,0.0,100,0.00,,CLR,0.00,VWS V14.01,2013-03-02 08:25:00,
2013-03-02 02:30:00,13.2,13.2,29.15,North,0,0.0,0.0,100,0.00,,CLR,0.00,VWS V14.01,2013-03-02 08:30:00,
2013-03-02 02:35:00,13.0,13.0,29.15,North,0,0.0,1.0,100,0.00,,CLR,0.00,VWS V14.01,2013-03-02 08:35:00,
2013-03-02 02:40:00,13.0,13.0,29.15,North,0,0.0,0.0,100,0.00,,CLR,0.00,VWS V14.01,2013-03-02 08:40:00,
2013-03-02 02:45:00,12.8,12.8,29.15,North,0,0.0,0.0,100,0.00,,CLR,0.00,VWS V14.01,2013-03-02 08:45:00,
2013-03-02 02:50:00,12.8,12.8,29.15,North,0,0.0,0.0,100,0.00,,CLR,0.00,VWS V14.01,2013-03-02 08:50:00,
2013-03-02 02:55:00,12.7,12.7,29.15,North,0,0.0,2.0,100,0.00,,CLR,0.00,VWS V14.01,2013-03-02 08:55:00,
2013-03-02 03:00:00,12.7,12.7,29.15,North,0,2.0,2.0,100,0.00,,CLR,0.00,VWS V14.01,2013-03-02 09:00:00,
2013-03-02 03:05:00,12.7,12.7,29.15,North,0,1.0,2.0,100,0.00,,CLR,0.00,VWS V14.01,2013-03-02 09:05:00,
2013-03-02 03:10:00,12.7,12.7,29.15,North,0,0.0,0.0,100,0.00,,CLR,0.00,VWS V14.01,2013-03-02 09:10:00,
2013-03-02 03:15:00,12.5,12.5,29.15,North,0,2.0,2.0,100,0.00,,CLR,0.00,VWS V14.01,2013-03-02 09:15:00,
2013-03-02 03:20:00,12.4,12.4,29.15,North,0,2.0,2.0,100,0.00,,CLR,0.00,VWS V14.01,2013-03-02 09:20:00,
2013-03-02 03:25:00,12.4,12.4,29.14,North,0,2.0,3.0,100,0.00,,CLR,0.00,VWS V14.01,2013-03-02 09:25:00,
2013-03-02 03:30:00,12.3,12.3,29.14,North,0,2.0,2.0,100,0.00,,CLR,0.00,VWS V14.01,2013-03-02 09:30:00,
2013-03-02 03:35:00,12.2,12.2,29.14,North,0,2.0,3.0,100,0.00,,CLR,0.00,VWS V14.01,2013-03-02 09:35:00,
2013-03-02 03:40:00,12.2,12.2,29.14,North,0,2.0,2.0,100,0.00,,CLR,0.00,VWS V14.01,2013-03-02 09:40:00,
2013-03-02 03:45:00,12.3,12.3,29.14,North,0,2.0,3.0,100,0.00,,CLR,0.00,VWS V14.01,2013-03-02 09:45:00,
2013-03-02 03:50:00,12.2,12.2,29.14,North,0,2.0,2.0,100,0.00,,CLR,0.00,VWS V14.01,2013-03-02 09:50:00,
2013-03-02 03:55:00,12.2,12.2,29.14,North,0,2.0,3.0,100,0.00,,CLR,0.00,VWS V14.01,2013-03-02 09:55:00,
2013-03-02 04:00:00,12.2,12.2,29.14,North,0,2.0,3.0,100,0.00,,CLR,0.00,VWS V14.01,2013-03-02 10:00:00,
2013-03-02 04:05:00,12.2,12.2,29.14,North,0,3.0,4.0,100,0.00,,CLR,0.00,VWS V14.01,2013-03-02 10:05:00,
2013-03-02 04:10:00,12.2,12.2,29.14,North,0,2.0,2.0,100,0.00,,CLR,0.00,VWS V14.01,2013-03-02 10:10:00,
2013-03-02 04:15:00,12.2,12.2,29.14,North,0,2.0,4.0,100,0.00,,CLR,0.00,VWS V14.01,2013-03-02 10:15:00,
2013-03-02 04:20:00,12.1,12.1,29.14,North,0,3.0,3.0,100,0.00,,CLR,0.00,VWS V14.01,2013-03-02 10:20:00,
2013-03-02 04:25:00,12.1,12.1,29.14,North,0,3.0,4.0,100,0.00,,CLR,0.00,VWS V14.01,2013-03-02 10:25:00,
2013-03-02 04:30:00,11.9,11.9,29.14,North,0,2.0,3.0,100,0.00,,CLR,0.00,VWS V14.01,2013-03-02 10:30:00,
2013-03-02 04:35:00,11.7,11.7,29.14,North,0,3.0,3.0,100,0.00,,CLR,0.00,VWS V14.01,2013-03-02 10:35:00,
2013-03-02 04:40:00,11.7,11.7,29.14,North,0,3.0,4.0,100,0.00,,CLR,0.00,VWS V14.01,2013-03-02 10:40:00,
2013-03-02 04:45:00,11.8,11.8,29.14,North,0,3.0,4.0,100,0.00,,CLR,0.00,VWS V14.01,2013-03-02 10:45:00,
2013-03-02 04:50:00,11.8,11.8,29.14,North,0,2.0,3.0,100,0.00,,CLR,0.00,VWS V14.01,2013-03-02 10:50:00,
2013-03-02 04:55:00,11.8,11.8,29.14,North,0,2.0,3.0,100,0.00,,CLR,0.00,VWS V14.01,2013-03-02 10:55:00,
2013-03-02 05:00:00,11.8,11.8,29.14,North,0,3.0,4.0,100,0.00,,CLR,0.00,VWS V14.01,2013-03-02 11:00:00,
2013-03-02 05:05:00,11.6,11.6,29.14,North,0,2.0,4.0,100,0.00,,CLR,0.00,VWS V14.01,2013-03-02 11:05:00,
2013-03-02 05:10:00,11.6,11.6,29.14,North,0,0.0,1.0,100,0.00,,CLR,0.00,VWS V14.01,2013-03-02 11:10:00,
2013-03-02 05:15:00,11.5,11.5,29.15,North,0,0.0,1.0,100,0.00,,CLR,0.00,VWS V14.01,2013-03-02 11:15:00,
2013-03-02 05:20:00,11.5,11.5,29.14,North,358,2.0,3.0,100,0.00,,CLR,0.00,VWS V14.01,2013-03-02 11:20:00,
2013-03-02 05:25:00,11.4,11.4,29.15,North,0,3.0,5.0,100,0.00,,CLR,0.00,VWS V14.01,2013-03-02 11:25:00,
2013-03-02 05:30:00,11.1,11.1,29.15,North,0,3.0,4.0,100,0.00,,CLR,0.00,VWS V14.01,2013-03-02 11:30:00,
2013-03-02 05:35:00,11.0,11.0,29.15,North,0,3.0,4.0,100,0.00,,CLR,0.00,VWS V14.01,2013-03-02 11:35:00,
2013-03-02 05:40:00,10.8,10.8,29.15,North,0,3.0,4.0,100,0.00,,CLR,0.00,VWS V14.01,2013-03-02 11:40:00,
2013-03-02 05:45:00,10.7,10.7,29.15,North,3,4.0,5.0,100,0.00,,CLR,0.00,VWS V14.01,2013-03-02 11:45:00,
2013-03-02 05:50:00,10.5,10.5,29.15,North,7,3.0,4.0,100,0.00,,CLR,0.00,VWS V14.01,2013-03-02 11:50:00,
2013-03-02 05:55:00,10.6,10.6,29.15,NNE,16,4.0,5.0,100,0.00,,CLR,0.00,VWS V14.01,2013-03-02 11:55:00,
2013-03-02 06:00:00,10.6,10.6,29.15,North,0,3.0,3.0,100,0.00,,CLR,0.00,VWS V14.01,2013-03-02 12:00:00,
2013-03-02 06:05:00,10.7,10.7,29.15,North,0,4.0,4.0,100,0.00,,CLR,0.00,VWS V14.01,2013-03-02 12:05:00,
2013-03-02 06:10:00,10.7,10.7,29.15,North,7,3.0,5.0,100,0.00,,CLR,0.00,VWS V14.01,2013-03-02 12:10:00,
2013-03-02 06:15:00,10.7,10.7,29.15,North,0,2.0,5.0,100,0.00,,CLR,0.00,VWS V14.01,2013-03-02 12:15:00,
2013-03-02 06:20:00,10.8,10.8,29.15,North,0,2.0,3.0,100,0.00,,CLR,0.00,VWS V14.01,2013-03-02 12:20:00,
2013-03-02 06:25:00,10.8,10.8,29.15,North,0,4.0,5.0,100,0.00,,CLR,0.00,VWS V14.01,2013-03-02 12:25:00,
2013-03-02 06:30:00,10.7,10.7,29.15,North,1,4.0,5.0,100,0.00,,CLR,0.00,VWS V14.01,2013-03-02 12:30:00,
2013-03-02 06:35:00,10.6,10.6,29.16,North,2,3.0,5.0,100,0.00,,CLR,0.00,VWS V14.01,2013-03-02 12:35:00,
2013-03-02 06:40:00,10.5,10.5,29.16,North,2,3.0,4.0,100,0.00,,CLR,0.00,VWS V14.01,2013-03-02 12:40:00,
2013-03-02 06:45:00,10.5,10.5,29.16,North,356,5.0,6.0,100,0.00,,CLR,0.00,VWS V14.01,2013-03-02 12:45:00,
2013-03-02 06:50:00,10.4,10.4,29.16,North,0,5.0,5.0,100,0.00,,CLR,0.00,VWS V14.01,2013-03-02 12:50:00,
2013-03-02 06:55:00,10.3,10.3,29.16,North,0,5.0,6.0,100,0.00,,CLR,0.00,VWS V14.01,2013-03-02 12:55:00,
2013-03-02 07:00:00,10.2,10.2,29.16,North,3,3.0,5.0,100,0.00,,CLR,0.00,VWS V14.01,2013-03-02 13:00:00,
2013-03-02 07:05:00,10.0,10.0,29.16,North,0,6.0,6.0,100,0.00,,CLR,0.00,VWS V14.01,2013-03-02 13:05:00,
2013-03-02 07:10:00,9.8,9.8,29.16,North,6,3.0,5.0,100,0.00,,CLR,0.00,VWS V14.01,2013-03-02 13:10:00,
2013-03-02 07:15:00,9.7,9.7,29.16,North,0,4.0,5.0,100,0.00,,CLR,0.00,VWS V14.01,2013-03-02 13:15:00,
2013-03-02 07:20:00,9.6,9.6,29.16,North,0,3.0,4.0,100,0.00,,CLR,0.00,VWS V14.01,2013-03-02 13:20:00,
2013-03-02 07:25:00,9.5,9.5,29.16,NNE,16,2.0,5.0,100,0.00,,CLR,0.00,VWS V14.01,2013-03-02 13:25:00,
2013-03-02 07:30:00,9.6,9.6,29.16,North,1,3.0,5.0,100,0.00,,CLR,0.00,VWS V14.01,2013-03-02 13:30:00,
2013-03-02 07:35:00,9.6,9.6,29.16,North,5,3.0,5.0,100,0.00,,CLR,0.00,VWS V14.01,2013-03-02 13:35:00,
2013-03-02 07:40:00,9.7,9.7,29.16,North,352,4.0,4.0,100,0.00,,CLR,0.00,VWS V14.01,2013-03-02 13:40:00,
2013-03-02 07:45:00,9.7,9.7,29.17,NNE,15,3.0,5.0,100,0.00,,CLR,0.00,VWS V14.01,2013-03-02 13:45:00,
2013-03-02 07:50:00,9.6,9.6,29.16,North,0,3.0,5.0,100,0.00,,CLR,0.00,VWS V14.01,2013-03-02 13:50:00,
2013-03-02 07:55:00,9.6,9.6,29.16,North,359,5.0,7.0,100,0.00,,CLR,0.00,VWS V14.01,2013-03-02 13:55:00,
2013-03-02 08:00:00,9.7,9.7,29.16,North,1,4.0,5.0,100,0.00,,CLR,0.00,VWS V14.01,2013-03-02 14:00:00,
2013-03-02 08:05:00,9.8,9.8,29.16,North,0,5.0,6.0,100,0.00,,CLR,0.00,VWS V14.01,2013-03-02 14:05:00,
2013-03-02 08:10:00,10.0,10.0,29.16,North,357,3.0,3.0,100,0.00,,CLR,0.00,VWS V14.01,2013-03-02 14:10:00,
2013-03-02 08:15:00,10.2,10.2,29.16,North,0,4.0,5.0,100,0.00,,CLR,0.00,VWS V14.01,2013-03-02 14:15:00,
2013-03-02 08:20:00,10.4,10.4,29.16,North,0,3.0,4.0,100,0.00,,CLR,0.00,VWS V14.01,2013-03-02 14:20:00,
2013-03-02 08:25:00,10.7,10.7,29.16,North,1,4.0,6.0,100,0.00,,CLR,0.00,VWS V14.01,2013-03-02 14:25:00,
2013-03-02 08:30:00,11.0,11.0,29.16,North,4,4.0,5.0,100,0.00,,CLR,0.00,VWS V14.01,2013-03-02 14:30:00,
2013-03-02 08:35:00,11.2,11.2,29.16,North,11,3.0,6.0,100,0.00,,CLR,0.00,VWS V14.01,2013-03-02 14:35:00,
2013-03-02 08:40:00,11.6,11.6,29.16,North,3,4.0,6.0,100,0.00,,CLR,0.00,VWS V14.01,2013-03-02 14:40:00,
2013-03-02 08:45:00,11.9,11.9,29.15,North,6,5.0,7.0,100,0.00,,CLR,0.00,VWS V14.01,2013-03-02 14:45:00,
2013-03-02 08:50:00,12.4,12.4,29.16,North,5,4.0,5.0,100,0.00,,CLR,0.00,VWS V14.01,2013-03-02 14:50:00,
2013-03-02 08:55:00,12.8,12.8,29.16,NNE,22,4.0,11.0,100,0.00,,CLR,0.00,VWS V14.01,2013-03-02 14:55:00,
2013-03-02 09:00:00,13.2,13.2,29.16,NNE,19,5.0,6.0,100,0.00,,CLR,0.00,VWS V14.01,2013-03-02 15:00:00,
2013-03-02 09:05:00,13.6,13.6,29.16,NNE,13,5.0,9.0,100,0.00,,CLR,0.00,VWS V14.01,2013-03-02 15:05:00,
2013-03-02 09:10:00,13.9,13.9,29.16,North,357,7.0,7.0,100,0.00,,CLR,0.00,VWS V14.01,2013-03-02 15:10:00,
2013-03-02 09:15:00,14.1,14.1,29.16,North,8,9.0,11.0,100,0.00,,CLR,0.00,VWS V14.01,2013-03-02 15:15:00,
2013-03-02 09:20:00,14.4,14.4,29.16,North,2,5.0,6.0,100,0.00,,CLR,0.00,VWS V14.01,2013-03-02 15:20:00,
2013-03-02 09:25:00,14.7,14.7,29.16,North,359,4.0,9.0,100,0.00,,CLR,0.00,VWS V14.01,2013-03-02 15:25:00,
2013-03-02 09:30:00,15.0,15.0,29.16,North,9,4.0,6.0,100,0.00,,CLR,0.00,VWS V14.01,2013-03-02 15:30:00,
2013-03-02 09:35:00,15.1,15.1,29.16,NNE,14,8.0,11.0,100,0.00,,CLR,0.00,VWS V14.01,2013-03-02 15:35:00,
2013-03-02 09:40:00,15.4,15.4,29.16,North,358,6.0,6.0,100,0.00,,CLR,0.00,VWS V14.01,2013-03-02 15:40:00,
2013-03-02 09:45:00,15.7,15.7,29.16,NNE,20,5.0,9.0,100,0.00,,CLR,0.00,VWS V14.01,2013-03-02 15:45:00,
2013-03-02 09:50:00,16.0,16.0,29.16,North,358,6.0,7.0,100,0.00,,CLR,0.00,VWS V14.01,2013-03-02 15:50:00,
2013-03-02 09:55:00,16.2,16.2,29.16,North,9,4.0,10.0,100,0.00,,CLR,0.00,VWS V14.01,2013-03-02 15:55:00,
2013-03-02 10:01:00,16.6,16.6,29.16,North,0,2.0,9.0,100,0.00,,CLR,0.00,VWS V14.01,2013-03-02 16:01:00,
2013-03-02 10:06:00,16.8,16.8,29.16,North,4,0.0,11.0,100,0.00,,CLR,0.00,VWS V14.01,2013-03-02 16:06:00,
2013-03-02 10:11:00,17.0,17.0,29.16,NNE,17,8.0,8.0,100,0.00,,CLR,0.00,VWS V14.01,2013-03-02 16:11:00,
2013-03-02 10:16:00,17.3,17.3,29.16,North,7,4.0,9.0,100,0.00,,CLR,0.00,VWS V14.01,2013-03-02 16:16:00,
2013-03-02 10:21:00,17.5,17.5,29.16,NNE,20,4.0,8.0,100,0.00,,CLR,0.00,VWS V14.01,2013-03-02 16:21:00,
2013-03-02 10:26:00,17.7,17.7,29.16,North,359,7.0,9.0,100,0.00,,CLR,0.00,VWS V14.01,2013-03-02 16:26:00,
2013-03-02 10:31:00,17.9,17.9,29.16,North,0,3.0,7.0,100,0.00,,CLR,0.00,VWS V14.01,2013-03-02 16:31:00,
2013-03-02 10:36:00,18.2,18.2,29.15,North,7,3.0,11.0,100,0.00,,CLR,0.00,VWS V14.01,2013-03-02 16:36:00,
2013-03-02 10:41:00,18.3,18.3,29.15,NNE,12,6.0,9.0,100,0.00,,CLR,0.00,VWS V14.01,2013-03-02 16:41:00,
2013-03-02 10:46:00,18.6,18.6,29.15,NNE,19,7.0,12.0,100,0.00,,CLR,0.00,VWS V14.01,2013-03-02 16:46:00,
2013-03-02 10:51:00,18.8,18.8,29.15,North,8,3.0,8.0,100,0.00,,CLR,0.00,VWS V14.01,2013-03-02 16:51:00,
2013-03-02 10:56:00,19.0,19.0,29.15,North,353,2.0,11.0,100,0.00,,CLR,0.00,VWS V14.01,2013-03-02 16:56:00,
2013-03-02 11:01:00,19.2,19.2,29.15,NNE,21,4.0,8.0,100,0.00,,CLR,0.00,VWS V14.01,2013-03-02 17:01:00,
2013-03-02 11:06:00,19.6,19.6,29.15,North,9,3.0,8.0,100,0.00,,CLR,0.00,VWS V14.01,2013-03-02 17:06:00,
2013-03-02 11:11:00,19.9,19.9,29.15,North,7,2.0,6.0,100,0.00,,CLR,0.00,VWS V14.01,2013-03-02 17:11:00,
2013-03-02 11:16:00,20.0,20.0,29.14,NNE,19,4.0,9.0,100,0.00,,CLR,0.00,VWS V14.01,2013-03-02 17:16:00,
2013-03-02 11:21:00,20.1,20.1,29.15,North,1,4.0,5.0,100,0.00,,CLR,0.00,VWS V14.01,2013-03-02 17:21:00,
2013-03-02 11:26:00,20.6,20.6,29.15,North,10,5.0,10.0,100,0.00,,CLR,0.00,VWS V14.01,2013-03-02 17:26:00,
2013-03-02 11:31:00,20.8,20.8,29.15,North,4,4.0,6.0,100,0.01,,CLR,0.01,VWS V14.01,2013-03-02 17:31:00,
2013-03-02 11:46:00,20.9,20.9,29.14,North,0,5.0,13.0,100,0.02,,CLR,0.02,VWS V14.01,2013-03-02 17:46:00,
2013-03-02 11:51:00,21.4,21.4,29.14,North,0,9.0,10.0,100,0.00,,CLR,0.01,VWS V14.01,2013-03-02 17:51:00,
2013-03-02 11:56:00,21.4,21.4,29.14,North,10,7.0,12.0,100,0.00,,CLR,0.01,VWS V14.01,2013-03-02 17:56:00,
2013-03-02 12:01:00,21.6,21.6,29.14,North,0,0.0,12.0,100,0.00,,CLR,0.01,VWS V14.01,2013-03-02 18:01:00,
2013-03-02 12:06:00,21.9,21.9,29.14,North,7,6.0,12.0,100,0.00,,CLR,0.01,VWS V14.01,2013-03-02 18:06:00,
2013-03-02 12:11:00,22.0,22.0,29.14,North,0,5.0,12.0,100,0.00,,CLR,0.01,VWS V14.01,2013-03-02 18:11:00,
2013-03-02 12:16:00,22.2,22.2,29.13,NNE,20,4.0,12.0,100,0.00,,CLR,0.01,VWS V14.01,2013-03-02 18:16:00,
2013-03-02 12:21:00,22.4,22.4,29.13,NNE,16,3.0,12.0,100,0.00,,CLR,0.01,VWS V14.01,2013-03-02 18:21:00,
2013-03-02 12:26:00,22.7,22.7,29.13,NNE,18,1.0,12.0,100,0.00,,CLR,0.01,VWS V14.01,2013-03-02 18:26:00,
2013-03-02 12:31:00,22.9,22.9,29.13,North,3,8.0,12.0,100,0.00,,CLR,0.01,VWS V14.01,2013-03-02 18:31:00,
2013-03-02 12:36:00,23.1,23.1,29.13,NNE,18,4.0,12.0,100,0.00,,CLR,0.01,VWS V14.01,2013-03-02 18:36:00,
2013-03-02 12:41:00,23.3,23.3,29.12,NNE,24,1.0,12.0,100,0.00,,CLR,0.01,VWS V14.01,2013-03-02 18:41:00,
2013-03-02 12:46:00,23.4,23.4,29.12,NNE,28,4.0,12.0,100,0.00,,CLR,0.01,VWS V14.01,2013-03-02 18:46:00,
2013-03-02 12:51:00,23.5,23.5,29.12,NNW,340,7.0,10.0,100,0.00,,CLR,0.01,VWS V14.01,2013-03-02 18:51:00,
2013-03-02 12:56:00,23.7,23.7,29.12,North,1,5.0,10.0,100,0.00,,CLR,0.01,VWS V14.01,2013-03-02 18:56:00,
2013-03-02 13:01:00,23.7,23.7,29.12,North,5,6.0,11.0,100,0.01,,CLR,0.02,VWS V14.01,2013-03-02 19:01:00,
2013-03-02 13:06:00,23.8,23.8,29.12,NNE,30,8.0,11.0,100,0.01,,CLR,0.02,VWS V14.01,2013-03-02 19:06:00,
2013-03-02 13:11:00,24.0,24.0,29.12,North,353,4.0,6.0,100,0.01,,CLR,0.02,VWS V14.01,2013-03-02 19:11:00,
2013-03-02 13:16:00,24.2,24.2,29.12,North,355,4.0,9.0,100,0.01,,CLR,0.02,VWS V14.01,2013-03-02 19:16:00,
2013-03-02 13:21:00,24.3,24.3,29.12,North,5,8.0,9.0,100,0.01,,CLR,0.02,VWS V14.01,2013-03-02 19:21:00,
2013-03-02 13:26:00,24.3,24.3,29.12,NW,325,5.0,14.0,100,0.01,,CLR,0.02,VWS V14.01,2013-03-02 19:26:00,
2013-03-02 13:31:00,24.4,24.4,29.12,WNW,301,11.0,11.0,100,0.01,,CLR,0.02,VWS V14.01,2013-03-02 19:31:00,
2013-03-02 13:36:00,24.5,24.5,29.12,North,358,5.0,13.0,100,0.01,,CLR,0.02,VWS V14.01,2013-03-02 19:36:00,
2013-03-02 13:41:00,24.6,24.6,29.11,North,352,6.0,7.0,100,0.00,,CLR,0.02,VWS V14.01,2013-03-02 19:41:00,
2013-03-02 13:46:00,24.7,24.7,29.11,WNW,293,12.0,12.0,100,0.00,,CLR,0.02,VWS V14.01,2013-03-02 19:46:00,
2013-03-02 13:51:00,24.7,24.7,29.11,NNW,339,7.0,9.0,100,0.01,,CLR,0.02,VWS V14.01,2013-03-02 19:51:00,
2013-03-02 13:56:00,24.8,24.8,29.11,NNW,331,6.0,10.0,100,0.01,,CLR,0.02,VWS V14.01,2013-03-02 19:56:00,
2013-03-02 14:01:00,24.8,24.8,29.11,NNW,346,6.0,7.0,100,0.00,,CLR,0.02,VWS V14.01,2013-03-02 20:01:00,
2013-03-02 14:06:00,24.9,24.9,29.11,NNE,26,8.0,12.0,100,0.00,,CLR,0.02,VWS V14.01,2013-03-02 20:06:00,
2013-03-02 14:11:00,25.0,25.0,29.11,North,8,5.0,8.0,100,0.00,,CLR,0.02,VWS V14.01,2013-03-02 20:11:00,
2013-03-02 14:16:00,25.1,25.1,29.11,NNE,16,6.0,10.0,100,0.00,,CLR,0.02,VWS V14.01,2013-03-02 20:16:00,
2013-03-02 14:21:00,25.1,25.1,29.11,NW,320,5.0,12.0,100,0.00,,CLR,0.02,VWS V14.01,2013-03-02 20:21:00,
2013-03-02 14:26:00,25.2,25.2,29.11,North,4,3.0,12.0,100,0.00,,CLR,0.02,VWS V14.01,2013-03-02 20:26:00,
2013-03-02 14:40:00,24.4,24.4,29.12,NW,315,8.0,13.0,100,0.00,,,0.02,VWS V14.01,2013-03-02 20:40:00,
2013-03-02 14:50:00,24.6,24.6,29.11,NW,315,8.0,14.0,100,0.00,,,0.02,VWS V14.01,2013-03-02 20:50:00,
2013-03-02 15:00:00,24.7,24.7,29.11,NNW,338,6.0,12.0,100,0.00,,,0.02,VWS V14.01,2013-03-02 21:00:00,
2013-03-02 15:10:00,24.9,24.9,29.11,North,0,7.0,12.0,100,0.00,,,0.02,VWS V14.01,2013-03-02 21:10:00,
2013-03-02 15:20:00,25.1,25.1,29.11,North,0,6.0,12.0,100,0.00,,,0.02,VWS V14.01,2013-03-02 21:20:00,
2013-03-02 15:30:00,25.2,25.2,29.11,NW,315,6.0,12.0,100,0.00,,,0.02,VWS V14.01,2013-03-02 21:30:00,
2013-03-02 15:43:00,25.9,25.9,29.10,North,0,5.0,10.0,100,0.00,,,0.02,VWS V14.01,2013-03-02 21:43:00,
2013-03-02 15:48:00,26.2,26.2,29.10,North,7,5.0,6.0,100,0.00,,,0.02,VWS V14.01,2013-03-02 21:48:00,
2013-03-02 15:53:00,26.2,26.2,29.10,North,2,4.0,8.0,100,0.00,,CLR,0.02,VWS V14.01,2013-03-02 21:53:00,
2013-03-02 15:58:00,26.2,26.2,29.10,North,356,6.0,8.0,100,0.00,,CLR,0.02,VWS V14.01,2013-03-02 21:58:00,
2013-03-02 16:03:00,26.2,26.2,29.10,North,10,4.0,8.0,100,0.00,,CLR,0.02,VWS V14.01,2013-03-02 22:03:00,
2013-03-02 16:08:00,26.1,26.1,29.10,North,353,2.0,8.0,100,0.00,,CLR,0.02,VWS V14.01,2013-03-02 22:08:00,
2013-03-02 16:13:00,26.1,26.1,29.10,NW,314,4.0,9.0,100,0.00,,CLR,0.02,VWS V14.01,2013-03-02 22:13:00,
2013-03-02 16:18:00,26.1,26.1,29.10,NNW,329,4.0,9.0,100,0.00,,CLR,0.02,VWS V14.01,2013-03-02 22:18:00,
2013-03-02 16:23:00,26.2,26.2,29.10,NNW,342,4.0,9.0,100,0.00,,CLR,0.02,VWS V14.01,2013-03-02 22:23:00,
2013-03-02 16:28:00,26.1,26.1,29.10,NNW,340,4.0,11.0,100,0.00,,CLR,0.02,VWS V14.01,2013-03-02 22:28:00,
2013-03-02 16:33:00,26.1,26.1,29.10,NNW,345,3.0,11.0,100,0.00,,CLR,0.02,VWS V14.01,2013-03-02 22:33:00,
2013-03-02 16:38:00,26.1,26.1,29.10,WNW,292,4.0,11.0,100,0.00,,CLR,0.02,VWS V14.01,2013-03-02 22:38:00,
2013-03-02 16:43:00,26.0,26.0,29.10,NW,318,5.0,11.0,100,0.00,,CLR,0.02,VWS V14.01,2013-03-02 22:43:00,
2013-03-02 16:48:00,25.9,25.9,29.10,NNW,344,4.0,11.0,100,0.00,,CLR,0.02,VWS V14.01,2013-03-02 22:48:00,
2013-03-02 16:53:00,25.9,25.9,29.10,NNW,332,5.0,8.0,100,0.00,,CLR,0.02,VWS V14.01,2013-03-02 22:53:00,
2013-03-02 16:58:00,25.8,25.8,29.10,NNW,330,4.0,8.0,100,0.00,,CLR,0.02,VWS V14.01,2013-03-02 22:58:00,
2013-03-02 17:03:00,25.7,25.7,29.10,NNW,330,5.0,5.0,100,0.00,,CLR,0.02,VWS V14.01,2013-03-02 23:03:00,
2013-03-02 17:08:00,25.6,25.6,29.10,NNW,338,4.0,5.0,100,0.00,,CLR,0.02,VWS V14.01,2013-03-02 23:08:00,
2013-03-02 17:13:00,25.5,25.5,29.10,NW,312,3.0,5.0,100,0.00,,CLR,0.02,VWS V14.01,2013-03-02 23:13:00,
2013-03-02 17:18:00,25.4,25.4,29.10,NNW,342,5.0,6.0,100,0.00,,CLR,0.02,VWS V14.01,2013-03-02 23:18:00,
2013-03-02 17:23:00,25.2,25.2,29.10,NNW,344,4.0,5.0,100,0.00,,CLR,0.02,VWS V14.01,2013-03-02 23:23:00,
2013-03-02 17:28:00,25.1,25.1,29.10,NW,326,5.0,6.0,100,0.00,,CLR,0.02,VWS V14.01,2013-03-02 23:28:00,
2013-03-02 17:33:00,24.9,24.9,29.10,NW,318,4.0,5.0,100,0.00,,CLR,0.02,VWS V14.01,2013-03-02 23:33:00,
2013-03-02 17:38:00,24.7,24.7,29.10,NW,314,1.0,5.0,100,0.00,,CLR,0.02,VWS V14.01,2013-03-02 23:38:00,
2013-03-02 17:43:00,24.4,24.4,29.11,NNW,341,2.0,4.0,100,0.00,,CLR,0.02,VWS V14.01,2013-03-02 23:43:00,
2013-03-02 17:48:00,24.2,24.2,29.11,WNW,301,4.0,5.0,100,0.00,,CLR,0.02,VWS V14.01,2013-03-02 23:48:00,
2013-03-02 17:53:00,24.0,24.0,29.11,NW,324,3.0,5.0,100,0.00,,CLR,0.02,VWS V14.01,2013-03-02 23:53:00,
2013-03-02 17:58:00,23.9,23.9,29.11,WNW,301,2.0,5.0,100,0.00,,CLR,0.02,VWS V14.01,2013-03-02 23:58:00,
2013-03-02 18:03:00,23.8,23.8,29.11,WNW,289,3.0,4.0,100,0.00,,CLR,0.02,VWS V14.01,2013-03-03 00:03:00,
2013-03-02 18:08:00,23.6,23.6,29.11,WNW,295,3.0,4.0,100,0.00,,CLR,0.02,VWS V14.01,2013-03-03 00:08:00,
2013-03-02 18:13:00,23.5,23.5,29.11,WNW,296,1.0,4.0,100,0.00,,CLR,0.02,VWS V14.01,2013-03-03 00:13:00,
2013-03-02 18:18:00,23.3,23.3,29.10,WNW,287,2.0,4.0,100,0.00,,CLR,0.02,VWS V14.01,2013-03-03 00:18:00,
2013-03-02 18:23:00,23.1,23.1,29.10,WNW,287,3.0,3.0,100,0.00,,CLR,0.02,VWS V14.01,2013-03-03 00:23:00,
2013-03-02 18:28:00,23.0,23.0,29.10,WNW,286,3.0,3.0,100,0.00,,CLR,0.02,VWS V14.01,2013-03-03 00:28:00,
2013-03-02 18:33:00,22.8,22.8,29.10,WNW,286,2.0,3.0,100,0.00,,CLR,0.02,VWS V14.01,2013-03-03 00:33:00,
2013-03-02 18:38:00,22.6,22.6,29.10,WNW,286,3.0,3.0,100,0.00,,CLR,0.02,VWS V14.01,2013-03-03 00:38:00,
2013-03-02 18:43:00,22.4,22.4,29.10,West,262,1.0,4.0,100,0.00,,CLR,0.02,VWS V14.01,2013-03-03 00:43:00,
2013-03-02 18:48:00,22.3,22.3,29.10,West,265,3.0,4.0,100,0.00,,CLR,0.02,VWS V14.01,2013-03-03 00:48:00,
2013-03-02 18:53:00,22.3,22.3,29.10,West,268,2.0,3.0,100,0.00,,CLR,0.02,VWS V14.01,2013-03-03 00:53:00,
2013-03-02 18:58:00,22.2,22.2,29.10,West,268,2.0,3.0,100,0.00,,CLR,0.02,VWS V14.01,2013-03-03 00:58:00,
2013-03-02 19:03:00,22.1,22.1,29.10,West,268,2.0,3.0,100,0.00,,CLR,0.02,VWS V14.01,2013-03-03 01:03:00,
2013-03-02 19:08:00,22.1,22.1,29.10,West,269,2.0,3.0,100,0.00,,CLR,0.02,VWS V14.01,2013-03-03 01:08:00,
2013-03-02 19:13:00,22.1,22.1,29.10,WNW,295,2.0,3.0,100,0.00,,CLR,0.02,VWS V14.01,2013-03-03 01:13:00,
2013-03-02 19:18:00,22.1,22.1,29.10,WNW,296,3.0,4.0,100,0.00,,CLR,0.02,VWS V14.01,2013-03-03 01:18:00,
2013-03-02 19:23:00,22.0,22.0,29.10,WNW,295,2.0,4.0,100,0.00,,CLR,0.02,VWS V14.01,2013-03-03 01:23:00,
2013-03-02 19:28:00,21.9,21.9,29.10,WNW,295,4.0,4.0,100,0.00,,CLR,0.02,VWS V14.01,2013-03-03 01:28:00,
2013-03-02 19:33:00,21.8,21.8,29.10,NW,307,3.0,4.0,100,0.00,,CLR,0.02,VWS V14.01,2013-03-03 01:33:00,
2013-03-02 19:38:00,21.7,21.7,29.10,NW,313,2.0,4.0,100,0.00,,CLR,0.02,VWS V14.01,2013-03-03 01:38:00,
2013-03-02 19:43:00,21.6,21.6,29.10,WNW,299,3.0,4.0,100,0.00,,CLR,0.02,VWS V14.01,2013-03-03 01:43:00,
2013-03-02 19:48:00,21.5,21.5,29.10,WNW,299,2.0,4.0,100,0.00,,CLR,0.02,VWS V14.01,2013-03-03 01:48:00,
2013-03-02 19:53:00,21.4,21.4,29.10,WNW,299,2.0,3.0,100,0.00,,CLR,0.02,VWS V14.01,2013-03-03 01:53:00,
2013-03-02 19:58:00,21.3,21.3,29.10,WNW,299,2.0,3.0,100,0.00,,CLR,0.02,VWS V14.01,2013-03-03 01:58:00,
2013-03-02 20:03:00,21.3,21.3,29.10,WNW,302,3.0,4.0,100,0.00,,CLR,0.02,VWS V14.01,2013-03-03 02:03:00,
2013-03-02 20:08:00,21.2,21.2,29.10,WNW,303,1.0,4.0,100,0.00,,CLR,0.02,VWS V14.01,2013-03-03 02:08:00,
2013-03-02 20:13:00,21.1,21.1,29.10,WNW,303,2.0,3.0,100,0.00,,CLR,0.02,VWS V14.01,2013-03-03 02:13:00,
2013-03-02 20:18:00,21.0,21.0,29.10,WNW,303,2.0,3.0,100,0.00,,CLR,0.02,VWS V14.01,2013-03-03 02:18:00,
2013-03-02 20:23:00,20.9,20.9,29.10,NW,307,2.0,2.0,100,0.00,,CLR,0.02,VWS V14.01,2013-03-03 02:23:00,
2013-03-02 20:28:00,20.8,20.8,29.10,NW,307,2.0,2.0,100,0.00,,CLR,0.02,VWS V14.01,2013-03-03 02:28:00,
2013-03-02 20:33:00,20.7,20.7,29.10,NNW,329,2.0,3.0,100,0.00,,CLR,0.02,VWS V14.01,2013-03-03 02:33:00,
2013-03-02 20:38:00,20.4,20.4,29.10,NNW,329,2.0,3.0,100,0.00,,CLR,0.02,VWS V14.01,2013-03-03 02:38:00,
2013-03-02 20:43:00,20.2,20.2,29.10,NNW,329,0.0,1.0,100,0.00,,CLR,0.02,VWS V14.01,2013-03-03 02:43:00,
2013-03-02 20:48:00,20.0,20.0,29.10,NNW,329,0.0,1.0,100,0.00,,CLR,0.02,VWS V14.01,2013-03-03 02:48:00,
2013-03-02 20:53:00,19.9,19.9,29.10,NNW,329,2.0,3.0,100,0.00,,CLR,0.02,VWS V14.01,2013-03-03 02:53:00,
2013-03-02 20:58:00,19.8,19.8,29.10,NNW,329,2.0,3.0,100,0.00,,CLR,0.02,VWS V14.01,2013-03-03 02:58:00,
2013-03-02 21:03:00,19.6,19.6,29.10,NNW,342,2.0,3.0,100,0.00,,CLR,0.02,VWS V14.01,2013-03-03 03:03:00,
2013-03-02 21:08:00,19.6,19.6,29.10,NNE,12,2.0,3.0,100,0.00,,CLR,0.02,VWS V14.01,2013-03-03 03:08:00,
2013-03-02 21:13:00,19.7,19.7,29.09,North,11,2.0,4.0,100,0.00,,CLR,0.02,VWS V14.01,2013-03-03 03:13:00,
2013-03-02 21:18:00,19.7,19.7,29.10,North,11,2.0,4.0,100,0.00,,CLR,0.02,VWS V14.01,2013-03-03 03:18:00,
2013-03-02 21:23:00,19.6,19.6,29.10,North,11,2.0,2.0,100,0.00,,CLR,0.02,VWS V14.01,2013-03-03 03:23:00,
2013-03-02 21:28:00,19.5,19.5,29.10,North,11,0.0,3.0,100,0.00,,CLR,0.02,VWS V14.01,2013-03-03 03:28:00,
2013-03-02 21:33:00,19.4,19.4,29.10,North,11,0.0,0.0,100,0.00,,CLR,0.02,VWS V14.01,2013-03-03 03:33:00,
2013-03-02 21:38:00,19.1,19.1,29.10,North,11,0.0,0.0,100,0.00,,CLR,0.02,VWS V14.01,2013-03-03 03:38:00,
2013-03-02 21:43:00,18.5,18.5,29.10,North,11,0.0,0.0,100,0.00,,CLR,0.02,VWS V14.01,2013-03-03 03:43:00,
2013-03-02 21:48:00,18.0,18.0,29.10,SW,218,1.0,2.0,100,0.00,,CLR,0.02,VWS V14.01,2013-03-03 03:48:00,
2013-03-02 21:53:00,17.6,17.6,29.09,West,276,2.0,3.0,100,0.00,,CLR,0.02,VWS V14.01,2013-03-03 03:53:00,
2013-03-02 21:58:00,17.6,17.6,29.09,West,276,1.0,3.0,100,0.00,,CLR,0.02,VWS V14.01,2013-03-03 03:58:00,
2013-03-02 22:03:00,17.8,17.8,29.09,WNW,289,0.0,3.0,100,0.00,,CLR,0.02,VWS V14.01,2013-03-03 04:03:00,
2013-03-02 22:08:00,18.0,18.0,29.09,WNW,289,0.0,3.0,100,0.00,,CLR,0.02,VWS V14.01,2013-03-03 04:08:00,
2013-03-02 22:13:00,18.0,18.0,29.09,WNW,289,0.0,1.0,100,0.00,,CLR,0.02,VWS V14.01,2013-03-03 04:13:00,
2013-03-02 22:18:00,17.9,17.9,29.08,WNW,289,0.0,1.0,100,0.00,,CLR,0.02,VWS V14.01,2013-03-03 04:18:00,
2013-03-02 22:23:00,17.8,17.8,29.08,WNW,289,0.0,0.0,100,0.00,,CLR,0.02,VWS V14.01,2013-03-03 04:23:00,
2013-03-02 22:28:00,17.7,17.7,29.08,WNW,289,0.0,1.0,100,0.00,,CLR,0.02,VWS V14.01,2013-03-03 04:28:00,
2013-03-02 22:33:00,17.7,17.7,29.08,WNW,289,0.0,2.0,100,0.00,,CLR,0.02,VWS V14.01,2013-03-03 04:33:00,
2013-03-02 22:38:00,17.8,17.8,29.08,WNW,289,0.0,2.0,100,0.00,,CLR,0.02,VWS V14.01,2013-03-03 04:38:00,
2013-03-02 22:43:00,17.8,17.8,29.08,WNW,289,0.0,0.0,100,0.00,,CLR,0.02,VWS V14.01,2013-03-03 04:43:00,
2013-03-02 22:48:00,17.7,17.7,29.08,WNW,289,0.0,0.0,100,0.00,,CLR,0.02,VWS V14.01,2013-03-03 04:48:00,
2013-03-02 22:53:00,17.7,17.7,29.08,WNW,289,0.0,1.0,100,0.00,,CLR,0.02,VWS V14.01,2013-03-03 04:53:00,
2013-03-02 22:58:00,17.7,17.7,29.08,WNW,289,0.0,1.0,100,0.00,,CLR,0.02,VWS V14.01,2013-03-03 04:58:00,
2013-03-02 23:00:00,17.7,17.7,29.08,WNW,289,0.0,2.0,100,0.00,,CLR,0.02,VWS V14.01,2013-03-03 05:00:00,
2013-03-02 23:05:00,17.7,17.7,29.08,WNW,289,0.0,1.0,100,0.00,,CLR,0.02,VWS V14.01,2013-03-03 05:05:00,
2013-03-02 23:10:00,17.8,17.8,29.07,WNW,289,0.0,0.0,100,0.00,,CLR,0.02,VWS V14.01,2013-03-03 05:10:00,
2013-03-02 23:15:00,18.0,18.0,29.07,WNW,289,0.0,0.0,100,0.00,,CLR,0.02,VWS V14.01,2013-03-03 05:15:00,
2013-03-02 23:20:00,17.9,17.9,29.07,WNW,289,0.0,0.0,100,0.00,,CLR,0.02,VWS V14.01,2013-03-03 05:20:00,
2013-03-02 23:25:00,17.9,17.9,29.07,WNW,289,0.0,1.0,100,0.00,,CLR,0.02,VWS V14.01,2013-03-03 05:25:00,
2013-03-02 23:30:00,17.9,17.9,29.07,WNW,289,0.0,1.0,100,0.00,,CLR,0.02,VWS V14.01,2013-03-03 05:30:00,
2013-03-02 23:35:00,17.9,17.9,29.07,WNW,289,1.0,2.0,100,0.00,,CLR,0.02,VWS V14.01,2013-03-03 05:35:00,
2013-03-02 23:40:00,18.0,18.0,29.06,WNW,289,0.0,0.0,100,0.00,,CLR,0.02,VWS V14.01,2013-03-03 05:40:00,
2013-03-02 23:45:00,18.0,18.0,29.07,WNW,289,1.0,2.0,100,0.00,,CLR,0.02,VWS V14.01,2013-03-03 05:45:00,
2013-03-02 23:50:00,18.0,18.0,29.07,WNW,289,0.0,0.0,100,0.00,,CLR,0.02,VWS V14.01,2013-03-03 05:50:00,
2013-03-02 23:55:00,17.9,17.9,29.07,WNW,289,1.0,2.0,100,0.00,,CLR,0.02,VWS V14.01,2013-03-03 05:55:00,